Satellite-Ground Cal/Val Site Overpasses Predictions

Prediction of Satellite NPP Overpassing Cal/Val Site: Antarctic Dome C

Ground Cal/Val Site Location: Latitude: -75.10, Longitude: 123.35; Satellite-Ground Site NADIR distance within 100 km.

Table of predicted overpasses for the next 14.0 days since TLE Epoch: 1/8/2022
Interval Starting Time Ending Time Minimum Distance Time Minimum Distance (km)
1 01/08/2022 07:32:11 01/08/2022 07:32:40 01/08/2022 07:32:25 2.84
2 01/11/2022 14:55:34 01/11/2022 14:56:02 01/11/2022 14:55:48 21.17
3 01/12/2022 14:36:50 01/12/2022 14:37:04 01/12/2022 14:36:57 85.94
4 01/13/2022 07:38:21 01/13/2022 07:38:49 01/13/2022 07:38:35 37.78
5 01/14/2022 07:19:33 01/14/2022 07:19:53 01/14/2022 07:19:43 72.33
6 01/16/2022 15:01:45 01/16/2022 15:02:09 01/16/2022 15:01:57 57.72
7 01/17/2022 14:42:54 01/17/2022 14:43:19 01/17/2022 14:43:06 51.61
8 01/18/2022 07:44:34 01/18/2022 07:44:53 01/18/2022 07:44:43 72.54
9 01/19/2022 07:25:40 01/19/2022 07:26:07 01/19/2022 07:25:53 35.53
